EN

Hourly Weather Fortoul

Today, 29 November, Sunday

Time Temperature Precipitation Wind Pressure Humidity
00:00 +22°C° 0.5 mm 0 mps 739 mmHg 93%
01:00 +22°C° 0.5 mm 0 mps 739 mmHg 94%
02:00 +22°C° 0.3 mm 0 mps 738 mmHg 95%
03:00 +21°C° 0.3 mm 0 mps 738 mmHg 95%
04:00 +21°C° 0.3 mm 0 mps 738 mmHg 96%
05:00 +22°C° 0 mm 0 mps 739 mmHg 95%
06:00 +22°C° 0 mm 0 mps 739 mmHg 94%
07:00 +23°C° 0 mm 0 mps 739 mmHg 93%
08:00 +24°C° 0.1 mm 0 mps 740 mmHg 90%
09:00 +24°C° 0.1 mm 0 mps 740 mmHg 87%
10:00 +25°C° 0.1 mm 0 mps 740 mmHg 84%
11:00 +27°C° 0.2 mm 0 mps 739 mmHg 77%
12:00 +29°C° 0.2 mm 0 mps 739 mmHg 70%
13:00 +30°C° 0.2 mm 0 mps 738 mmHg 63%
14:00 +30°C° 0.3 mm 0 mps 737 mmHg 67%
15:00 +31°C° 0.3 mm 1 mps 737 mmHg 71%
16:00 +30°C° 0.3 mm 1 mps 737 mmHg 74%
17:00 +29°C° 0.5 mm 1 mps 737 mmHg 81%
18:00 +27°C° 0.5 mm 1 mps 738 mmHg 88%
19:00 +25°C° 0.5 mm 1 mps 738 mmHg 95%
20:00 +25°C° 0.1 mm 1 mps 739 mmHg 95%
21:00 +25°C° 0.1 mm 1 mps 739 mmHg 94%
22:00 +24°C° 0.1 mm 1 mps 740 mmHg 94%
23:00 +24°C° 0.4 mm 1 mps 739 mmHg 93%

Tomorrow, 30 November, Monday

Time Temperature Precipitation Wind Pressure Humidity
00:00 +24°C° 0.4 mm 1 mps 739 mmHg 93%
01:00 +24°C° 0.4 mm 1 mps 739 mmHg 93%
02:00 +24°C° 0.7 mm 1 mps 739 mmHg 93%
03:00 +24°C° 0.7 mm 1 mps 739 mmHg 94%
04:00 +23°C° 0.7 mm 1 mps 738 mmHg 94%
05:00 +24°C° 0.3 mm 1 mps 739 mmHg 94%
06:00 +24°C° 0.3 mm 1 mps 739 mmHg 94%
07:00 +24°C° 0.3 mm 1 mps 740 mmHg 94%
08:00 +26°C° 0.3 mm 1 mps 740 mmHg 91%
09:00 +27°C° 0.3 mm 1 mps 740 mmHg 87%
10:00 +29°C° 0.3 mm 1 mps 740 mmHg 83%
11:00 +29°C° 1.2 mm 1 mps 739 mmHg 84%
12:00 +29°C° 1.2 mm 1 mps 738 mmHg 85%
13:00 +30°C° 1.2 mm 1 mps 737 mmHg 86%
14:00 +29°C° 1 mm 1 mps 737 mmHg 88%
15:00 +29°C° 1 mm 1 mps 736 mmHg 89%
16:00 +28°C° 1 mm 1 mps 736 mmHg 91%
17:00 +27°C° 0.2 mm 1 mps 736 mmHg 92%
18:00 +26°C° 0.2 mm 1 mps 737 mmHg 93%
19:00 +25°C° 0.2 mm 1 mps 737 mmHg 95%
20:00 +25°C° 0.4 mm 1 mps 738 mmHg 94%
21:00 +25°C° 0.4 mm 1 mps 738 mmHg 94%
22:00 +24°C° 0.4 mm 1 mps 739 mmHg 94%
23:00 +24°C° 1.1 mm 1 mps 738 mmHg 95%

Day after tomorrow, 1 December, Tuesday

Time Temperature Precipitation Wind Pressure Humidity
00:00 +24°C° 1.1 mm 1 mps 738 mmHg 96%
01:00 +24°C° 1.1 mm 1 mps 738 mmHg 96%
02:00 +24°C° 0.2 mm 1 mps 738 mmHg 96%
03:00 +24°C° 0.2 mm 1 mps 737 mmHg 96%
04:00 +24°C° 0.2 mm 1 mps 737 mmHg 95%
05:00 +24°C° 0 mm 1 mps 738 mmHg 94%
06:00 +25°C° 0 mm 1 mps 738 mmHg 93%
07:00 +25°C° 0 mm 1 mps 739 mmHg 91%
08:00 +27°C° 0.2 mm 1 mps 739 mmHg 84%
09:00 +29°C° 0.2 mm 1 mps 739 mmHg 77%
10:00 +31°C° 0.2 mm 1 mps 739 mmHg 70%
11:00 +31°C° 0.7 mm 1 mps 738 mmHg 72%
12:00 +31°C° 0.7 mm 1 mps 737 mmHg 75%
13:00 +31°C° 0.7 mm 1 mps 737 mmHg 77%
14:00 +31°C° 0.2 mm 1 mps 736 mmHg 75%
15:00 +31°C° 0.2 mm 1 mps 736 mmHg 74%
16:00 +31°C° 0.2 mm 1 mps 736 mmHg 72%
17:00 +29°C° 0.1 mm 1 mps 736 mmHg 78%
18:00 +28°C° 0.1 mm 1 mps 737 mmHg 83%
19:00 +26°C° 0.1 mm 1 mps 737 mmHg 89%
20:00 +26°C° 0.2 mm 1 mps 738 mmHg 90%
21:00 +25°C° 0.2 mm 1 mps 738 mmHg 90%
22:00 +25°C° 0.2 mm 1 mps 738 mmHg 91%
23:00 +24°C° 0.7 mm 1 mps 738 mmHg 92%

2 December, Wednesday

Time Temperature Precipitation Wind Pressure Humidity
00:00 +24°C° 0.7 mm 1 mps 738 mmHg 93%
01:00 +24°C° 0.7 mm 1 mps 737 mmHg 94%
02:00 +24°C° 0.7 mm 1 mps 737 mmHg 94%
03:00 +23°C° 0.7 mm 1 mps 737 mmHg 94%
04:00 +23°C° 0.7 mm 1 mps 737 mmHg 94%
05:00 +24°C° 0.6 mm 1 mps 738 mmHg 94%
06:00 +24°C° 0.6 mm 1 mps 739 mmHg 94%
07:00 +25°C° 0.6 mm 1 mps 739 mmHg 93%
08:00 +26°C° 0.8 mm 1 mps 739 mmHg 91%
09:00 +27°C° 0.8 mm 1 mps 739 mmHg 89%
10:00 +29°C° 0.8 mm 1 mps 739 mmHg 87%
11:00 +29°C° 0.8 mm 1 mps 739 mmHg 84%
12:00 +29°C° 0.8 mm 1 mps 738 mmHg 81%
13:00 +30°C° 0.8 mm 1 mps 738 mmHg 77%
14:00 +30°C° 0.4 mm 1 mps 737 mmHg 79%
15:00 +29°C° 0.4 mm 1 mps 737 mmHg 81%
16:00 +29°C° 0.4 mm 1 mps 737 mmHg 83%
17:00 +28°C° 0.1 mm 1 mps 737 mmHg 86%
18:00 +26°C° 0.1 mm 1 mps 738 mmHg 88%
19:00 +25°C° 0.1 mm 1 mps 739 mmHg 91%
20:00 +25°C° 0 mm 1 mps 739 mmHg 90%
21:00 +24°C° 0 mm 1 mps 739 mmHg 89%
22:00 +24°C° 0 mm 1 mps 740 mmHg 88%
23:00 +24°C° 0 mm 1 mps 739 mmHg 87%

3 December, Thursday

Time Temperature Precipitation Wind Pressure Humidity
00:00 +23°C° 0 mm 1 mps 739 mmHg 86%
01:00 +23°C° 0 mm 1 mps 739 mmHg 85%
02:00 +23°C° 0 mm 1 mps 739 mmHg 84%
03:00 +23°C° 0 mm 1 mps 738 mmHg 83%
04:00 +23°C° 0 mm 1 mps 738 mmHg 82%
05:00 +23°C° 0 mm 1 mps 739 mmHg 81%
06:00 +24°C° 0 mm 1 mps 739 mmHg 79%
07:00 +25°C° 0 mm 1 mps 740 mmHg 78%
08:00 +27°C° 0 mm 1 mps 740 mmHg 71%
09:00 +29°C° 0 mm 2 mps 740 mmHg 64%
10:00 +32°C° 0 mm 2 mps 740 mmHg 57%
11:00 +32°C° 0 mm 2 mps 739 mmHg 56%
12:00 +34°C° 0 mm 2 mps 738 mmHg 55%
13:00 +34°C° 0 mm 2 mps 737 mmHg 54%
14:00 +34°C° 0 mm 2 mps 737 mmHg 58%
15:00 +32°C° 0 mm 1 mps 737 mmHg 62%
16:00 +31°C° 0 mm 1 mps 736 mmHg 66%
17:00 +29°C° 0.3 mm 1 mps 737 mmHg 75%
18:00 +27°C° 0.3 mm 1 mps 738 mmHg 84%
19:00 +25°C° 0.3 mm 1 mps 738 mmHg 93%
20:00 +25°C° 0.1 mm 1 mps 739 mmHg 92%
21:00 +25°C° 0.1 mm 1 mps 739 mmHg 91%
22:00 +24°C° 0.1 mm 1 mps 739 mmHg 90%
23:00 +24°C° 0 mm 1 mps 739 mmHg 88%

4 December, Friday

Time Temperature Precipitation Wind Pressure Humidity
00:00 +24°C° 0 mm 1 mps 739 mmHg 87%
01:00 +24°C° 0 mm 1 mps 739 mmHg 85%
02:00 +23°C° 0 mm 1 mps 739 mmHg 85%
03:00 +23°C° 0 mm 1 mps 738 mmHg 85%
04:00 +23°C° 0 mm 1 mps 738 mmHg 85%
05:00 +24°C° 0 mm 1 mps 739 mmHg 84%
06:00 +24°C° 0 mm 1 mps 739 mmHg 83%
07:00 +25°C° 0 mm 1 mps 740 mmHg 81%
08:00 +27°C° 0 mm 1 mps 740 mmHg 76%
09:00 +29°C° 0 mm 1 mps 740 mmHg 70%
10:00 +31°C° 0 mm 2 mps 740 mmHg 64%
11:00 +31°C° 0.1 mm 2 mps 739 mmHg 62%
12:00 +32°C° 0.1 mm 2 mps 739 mmHg 61%
13:00 +32°C° 0.1 mm 1 mps 738 mmHg 59%
14:00 +32°C° 0.1 mm 1 mps 737 mmHg 65%
15:00 +31°C° 0.1 mm 2 mps 737 mmHg 70%
16:00 +30°C° 0.1 mm 2 mps 736 mmHg 75%
17:00 +28°C° 0.1 mm 1 mps 737 mmHg 81%
18:00 +27°C° 0.1 mm 1 mps 737 mmHg 87%
19:00 +25°C° 0.1 mm 1 mps 738 mmHg 92%
20:00 +25°C° 0 mm 1 mps 738 mmHg 91%
21:00 +24°C° 0 mm 1 mps 739 mmHg 90%
22:00 +24°C° 0 mm 1 mps 739 mmHg 90%
23:00 +24°C° 0 mm 1 mps 739 mmHg 88%
Show more

We Need Your Consent

Meteoprog and our Service Providers may store and access personal data such as cookies, device identifiers or other similar technologies on your device and process such data to personalise content and ads, as well as provide social media features and to analyse the traffic.

  • Store and/or access information on your device

    Cookies, device identifiers or other information can be stored or accessed on your device for the purposes indicated above.

  • Personalised ads and content, ad and content measurement, audience insights, and products development

    Ads and content can be personalised based on a profile. More data can be added to better personalise ads and content. Ad and content performance can be measured. Insights about the audience who saw the ads and content can be derived. Such data can be used to develop or improve user’s experience, systems and software.

By clicking ‘I Agree’ you will allow the use of indicated cookies, device identifiers, web beacons or other similar technologies. Your settings can be changed in the browser on your device.

For certain purposes, legitimate interests may be relied on, rather than consent. You can read more about this in our Privacy and Cookie Policy.